| time (UTC) | temp F | wind direction | speed MPH | gust MPH | rain 1hr in | rain 24hr in | rain mn in | humidity % | barometer mb |
| 20260831230717 | 56 | 335 | 0.0 | 0.0 | 0.00 | 0.06 | 0.00 | 80 | 1023.1 |
| 20260831230237 | 56 | 323 | 0.0 | 0.0 | 0.00 | 0.07 | 0.00 | 80 | 1023.2 |
| 20260831225719 | 56 | 350 | 0.0 | 0.0 | 0.00 | 0.07 | 0.00 | 80 | 1023.3 |
| 20260831225233 | 56 | 5 | 0.0 | 0.0 | 0.00 | 0.07 | 0.00 | 80 | 1023.4 |
| 20260831224720 | 56 | 5 | 0.0 | 0.0 | 0.00 | 0.07 | 0.00 | 80 | 1023.4 |
| 20260831224212 | 56 | 5 | 0.0 | 0.0 | 0.00 | 0.07 | 0.00 | 78 | 1023.4 |
| 20260831223726 | 57 | 5 | 0.0 | 0.0 | 0.00 | 0.07 | 0.00 | 77 | 1023.5 |
| 20260831223217 | 57 | 44 | 0.0 | 0.0 | 0.00 | 0.12 | 0.00 | 76 | 1023.5 |
| 20260831222716 | 57 | 44 | 0.0 | 0.0 | 0.00 | 0.22 | 0.00 | 76 | 1023.5 |
| 20260831221719 | 58 | 341 | 0.0 | 0.0 | 0.00 | 0.31 | 0.00 | 75 | 1023.4 |
| 20260831221209 | 58 | 342 | 0.0 | 0.0 | 0.00 | 0.31 | 0.00 | 75 | 1023.4 |
| 20260831220720 | 58 | 355 | 0.0 | 0.0 | 0.00 | 0.31 | 0.00 | 74 | 1023.4 |
| 20260831220226 | 58 | 355 | 0.0 | 0.0 | 0.00 | 0.31 | 0.31 | 74 | 1023.4 |
| 20260831215211 | 59 | 336 | 0.0 | 0.0 | 0.00 | 0.31 | 0.31 | 73 | 1023.3 |
| 20260831214728 | 59 | 49 | 0.0 | 0.0 | 0.00 | 0.31 | 0.31 | 73 | 1023.3 |
| 20260831214220 | 59 | 37 | 0.0 | 0.0 | 0.00 | 0.31 | 0.31 | 72 | 1023.3 |
| 20260831213221 | 59 | 38 | 0.0 | 0.0 | 0.00 | 0.31 | 0.31 | 72 | 1023.3 |
| 20260831212725 | 59 | 38 | 0.0 | 0.0 | 0.00 | 0.31 | 0.31 | 72 | 1023.3 |
| 20260831211718 | 60 | 49 | 0.0 | 0.0 | 0.00 | 0.31 | 0.31 | 72 | 1023.4 |
| 20260831211219 | 60 | 302 | 0.0 | 0.0 | 0.00 | 0.31 | 0.31 | 71 | 1023.4 |
| 20260831210723 | 60 | 302 | 0.0 | 0.0 | 0.00 | 0.31 | 0.31 | 71 | 1023.4 |
| 20260831210224 | 60 | 302 | 0.0 | 0.0 | 0.00 | 0.31 | 0.31 | 70 | 1023.4 |
| 20260831205218 | 61 | 344 | 0.0 | 10.0 | 0.00 | 0.31 | 0.31 | 69 | 1023.2 |
| 20260831204717 | 61 | 121 | 0.0 | 10.0 | 0.00 | 0.31 | 0.31 | 68 | 1023.2 |
| 20260831204217 | 61 | 134 | 1.0 | 13.0 | 0.00 | 0.31 | 0.31 | 67 | 1023.1 |
| 20260831203718 | 61 | 99 | 2.0 | 13.0 | 0.00 | 0.31 | 0.31 | 67 | 1023.2 |
| 20260831203218 | 61 | 310 | 2.0 | 15.0 | 0.00 | 0.31 | 0.31 | 67 | 1023.2 |
| 20260831202214 | 62 | 72 | 2.0 | 15.0 | 0.00 | 0.31 | 0.31 | 66 | 1022.8 |
| 20260831201720 | 62 | 310 | 2.0 | 15.0 | 0.00 | 0.31 | 0.31 | 66 | 1022.8 |
| 20260831201219 | 62 | 64 | 0.0 | 2.0 | 0.00 | 0.31 | 0.31 | 67 | 1023.0 |
| 20260831200715 | 62 | 81 | 0.0 | 2.0 | 0.00 | 0.31 | 0.31 | 67 | 1022.8 |
| 20260831200223 | 62 | 168 | 0.0 | 7.0 | 0.00 | 0.31 | 0.31 | 66 | 1022.7 |
| 20260831195724 | 62 | 126 | 0.0 | 7.0 | 0.00 | 0.31 | 0.31 | 66 | 1022.7 |
| 20260831195217 | 62 | 110 | 0.0 | 0.0 | 0.00 | 0.31 | 0.31 | 66 | 1022.6 |
| 20260831194724 | 62 | 48 | 0.0 | 0.0 | 0.00 | 0.31 | 0.31 | 65 | 1022.6 |
| 20260831194216 | 63 | 121 | 0.0 | 10.0 | 0.00 | 0.31 | 0.31 | 66 | 1022.4 |
| 20260831193713 | 63 | 123 | 0.0 | 10.0 | 0.00 | 0.31 | 0.31 | 65 | 1022.3 |
| 20260831193226 | 63 | 105 | 1.0 | 10.0 | 0.00 | 0.31 | 0.31 | 65 | 1022.2 |
| 20260831192226 | 63 | 81 | 1.0 | 14.0 | 0.00 | 0.31 | 0.31 | 65 | 1022.2 |
| 20260831191721 | 62 | 20 | 2.0 | 14.0 | 0.00 | 0.31 | 0.31 | 65 | 1022.2 |
| 20260831191229 | 62 | 13 | 4.0 | 11.0 | 0.00 | 0.31 | 0.31 | 65 | 1022.3 |
| 20260831190714 | 62 | 0 | 2.0 | 11.0 | 0.00 | 0.31 | 0.31 | 65 | 1022.2 |
| 20260831190216 | 62 | 345 | 0.0 | 14.0 | 0.00 | 0.31 | 0.31 | 66 | 1022.1 |
| 20260831185721 | 62 | 5 | 1.0 | 14.0 | 0.00 | 0.31 | 0.31 | 66 | 1022.0 |
| 20260831185217 | 62 | 61 | 2.0 | 9.0 | 0.00 | 0.31 | 0.31 | 66 | 1022.0 |
| 20260831184710 | 62 | 71 | 3.0 | 9.0 | 0.00 | 0.31 | 0.31 | 66 | 1021.9 |
| 20260831184209 | 62 | 355 | 2.0 | 9.0 | 0.00 | 0.31 | 0.31 | 66 | 1021.8 |
| 20260831183718 | 62 | 9 | 1.0 | 9.0 | 0.00 | 0.31 | 0.31 | 66 | 1021.5 |
| 20260831183220 | 62 | 33 | 0.0 | 5.0 | 0.00 | 0.31 | 0.31 | 65 | 1021.5 |
| 20260831182226 | 63 | 326 | 0.0 | 5.0 | 0.00 | 0.31 | 0.31 | 65 | 1021.4 |
| 20260831181718 | 63 | 111 | 0.0 | 5.0 | 0.00 | 0.31 | 0.31 | 64 | 1021.3 |
| 20260831181222 | 63 | 349 | 0.0 | 0.0 | 0.00 | 0.31 | 0.31 | 64 | 1021.3 |
| 20260831180727 | 63 | 74 | 0.0 | 0.0 | 0.00 | 0.31 | 0.31 | 64 | 1021.2 |
| 20260831180233 | 63 | 329 | 0.0 | 14.0 | 0.00 | 0.31 | 0.31 | 64 | 1021.2 |
| 20260831175721 | 63 | 144 | 0.0 | 14.0 | 0.00 | 0.31 | 0.31 | 64 | 1021.2 |
| 20260831175223 | 64 | 309 | 3.0 | 14.0 | 0.00 | 0.31 | 0.31 | 63 | 1021.2 |
| 20260831174726 | 64 | 326 | 4.0 | 14.0 | 0.00 | 0.31 | 0.31 | 62 | 1021.2 |
| 20260831174224 | 64 | 346 | 3.0 | 10.0 | 0.00 | 0.31 | 0.31 | 62 | 1021.2 |
| 20260831173220 | 64 | 348 | 2.0 | 11.0 | 0.00 | 0.31 | 0.31 | 62 | 1021.2 |
| 20260831172717 | 64 | 351 | 2.0 | 11.0 | 0.00 | 0.31 | 0.31 | 61 | 1021.1 |
| 20260831172234 | 64 | 5 | 1.0 | 17.0 | 0.00 | 0.31 | 0.31 | 61 | 1021.2 |
| 20260831171720 | 64 | 265 | 3.0 | 17.0 | 0.00 | 0.31 | 0.31 | 60 | 1021.2 |
| 20260831171226 | 65 | 241 | 3.0 | 18.0 | 0.00 | 0.31 | 0.31 | 60 | 1021.3 |
| 20260831170713 | 65 | 50 | 3.0 | 18.0 | 0.00 | 0.31 | 0.31 | 60 | 1021.2 |
| 20260831170218 | 65 | 41 | 5.0 | 18.0 | 0.00 | 0.31 | 0.31 | 60 | 1021.3 |
| 20260831165729 | 65 | 355 | 4.0 | 18.0 | 0.00 | 0.31 | 0.31 | 59 | 1021.3 |
| 20260831165224 | 65 | 88 | 3.0 | 13.0 | 0.00 | 0.31 | 0.31 | 58 | 1021.4 |
| 20260831164724 | 66 | 331 | 4.0 | 13.0 | 0.00 | 0.31 | 0.31 | 57 | 1021.4 |
| 20260831164227 | 66 | 80 | 3.0 | 20.0 | 0.00 | 0.31 | 0.31 | 57 | 1021.4 |
| 20260831163707 | 66 | 319 | 2.0 | 20.0 | 0.00 | 0.31 | 0.31 | 57 | 1021.4 |
| 20260831163210 | 66 | 250 | 3.0 | 20.0 | 0.00 | 0.31 | 0.31 | 55 | 1021.5 |
| 20260831161716 | 68 | 84 | 7.0 | 22.0 | 0.00 | 0.31 | 0.31 | 53 | 1021.3 |
| 20260831161227 | 68 | 72 | 7.0 | 23.0 | 0.00 | 0.31 | 0.31 | 53 | 1021.3 |
| 20260831160723 | 69 | 314 | 6.0 | 23.0 | 0.00 | 0.31 | 0.31 | 53 | 1021.0 |
| 20260831160221 | 69 | 136 | 5.0 | 15.0 | 0.00 | 0.31 | 0.31 | 53 | 1020.9 |
| 20260831155725 | 68 | 65 | 4.0 | 15.0 | 0.00 | 0.31 | 0.31 | 55 | 1021.0 |
| 20260831154709 | 67 | 151 | 2.0 | 15.0 | 0.00 | 0.31 | 0.31 | 59 | 1020.5 |
| 20260831154227 | 67 | 140 | 3.0 | 21.0 | 0.00 | 0.31 | 0.31 | 62 | 1020.7 |
| 20260831153723 | 66 | 163 | 7.0 | 21.0 | 0.00 | 0.31 | 0.31 | 62 | 1020.8 |
| 20260831152720 | 66 | 317 | 6.0 | 15.0 | 0.00 | 0.31 | 0.31 | 61 | 1020.9 |
| 20260831152224 | 67 | 312 | 6.0 | 20.0 | 0.00 | 0.31 | 0.31 | 61 | 1020.9 |
| 20260831151217 | 66 | 46 | 5.0 | 15.0 | 0.00 | 0.31 | 0.31 | 62 | 1020.8 |
| 20260831150713 | 67 | 40 | 3.0 | 15.0 | 0.00 | 0.31 | 0.31 | 60 | 1020.9 |
| 20260831145717 | 67 | 334 | 5.0 | 19.0 | 0.00 | 0.31 | 0.31 | 61 | 1020.7 |
| 20260831145216 | 67 | 14 | 6.0 | 16.0 | 0.00 | 0.31 | 0.31 | 61 | 1020.6 |
| 20260831144219 | 67 | 84 | 4.0 | 16.0 | 0.00 | 0.31 | 0.31 | 60 | 1020.6 |
| 20260831143741 | 67 | 267 | 5.0 | 16.0 | 0.00 | 0.31 | 0.31 | 60 | 1020.6 |
| 20260831143226 | 67 | 24 | 4.0 | 20.0 | 0.00 | 0.31 | 0.31 | 61 | 1020.5 |
| 20260831142708 | 67 | 325 | 4.0 | 20.0 | 0.00 | 0.31 | 0.31 | 59 | 1020.7 |
| 20260831141728 | 67 | 355 | 9.0 | 24.0 | 0.00 | 0.31 | 0.31 | 59 | 1020.6 |
| 20260831141213 | 67 | 345 | 8.0 | 16.0 | 0.00 | 0.31 | 0.31 | 59 | 1020.6 |
| 20260831140713 | 67 | 345 | 5.0 | 16.0 | 0.00 | 0.31 | 0.31 | 59 | 1020.5 |
| 20260831140227 | 67 | 19 | 3.0 | 18.0 | 0.00 | 0.31 | 0.31 | 59 | 1020.6 |
| 20260831135222 | 67 | 239 | 6.0 | 26.0 | 0.00 | 0.31 | 0.31 | 58 | 1020.5 |
| 20260831134717 | 68 | 16 | 4.0 | 26.0 | 0.00 | 0.31 | 0.31 | 57 | 1020.6 |
| 20260831134226 | 68 | 71 | 6.0 | 20.0 | 0.00 | 0.31 | 0.31 | 57 | 1020.4 |
| 20260831133719 | 67 | 48 | 6.0 | 20.0 | 0.00 | 0.31 | 0.31 | 57 | 1020.6 |
| 20260831133217 | 68 | 5 | 7.0 | 16.0 | 0.00 | 0.31 | 0.31 | 57 | 1020.6 |
| 20260831132718 | 68 | 22 | 6.0 | 16.0 | 0.00 | 0.31 | 0.31 | 55 | 1020.7 |
| 20260831132233 | 68 | 13 | 4.0 | 14.0 | 0.00 | 0.31 | 0.31 | 56 | 1020.6 |
| 20260831131715 | 68 | 34 | 3.0 | 14.0 | 0.00 | 0.31 | 0.31 | 56 | 1020.6 |
| 20260831131208 | 69 | 327 | 3.0 | 11.0 | 0.00 | 0.31 | 0.31 | 55 | 1020.5 |
| 20260831130719 | 69 | 217 | 3.0 | 11.0 | 0.00 | 0.31 | 0.31 | 57 | 1020.5 |
| 20260831130217 | 69 | 143 | 4.0 | 13.0 | 0.00 | 0.31 | 0.31 | 57 | 1020.4 |
| 20260831125726 | 68 | 152 | 4.0 | 13.0 | 0.00 | 0.31 | 0.31 | 59 | 1020.4 |
| 20260831125228 | 68 | 163 | 4.0 | 15.0 | 0.00 | 0.31 | 0.31 | 57 | 1020.5 |
| 20260831124717 | 67 | 118 | 5.0 | 15.0 | 0.00 | 0.31 | 0.31 | 60 | 1020.3 |
| 20260831124218 | 68 | 204 | 7.0 | 16.0 | 0.00 | 0.31 | 0.31 | 56 | 1020.6 |
| 20260831123228 | 68 | 153 | 6.0 | 16.0 | 0.00 | 0.31 | 0.31 | 58 | 1020.5 |
| 20260831122716 | 67 | 198 | 8.0 | 16.0 | 0.00 | 0.31 | 0.31 | 57 | 1020.5 |
| 20260831121747 | 68 | 178 | 2.0 | 15.0 | 0.00 | 0.31 | 0.31 | 58 | 1020.5 |
| 20260831121220 | 66 | 111 | 4.0 | 19.0 | 0.00 | 0.31 | 0.31 | 62 | 1020.6 |
| 20260831120713 | 65 | 336 | 6.0 | 19.0 | 0.00 | 0.31 | 0.31 | 64 | 1020.7 |
| 20260831120213 | 65 | 65 | 9.0 | 20.0 | 0.00 | 0.31 | 0.31 | 65 | 1020.7 |
| 20260831115712 | 65 | 328 | 11.0 | 20.0 | 0.00 | 0.31 | 0.31 | 64 | 1020.7 |
| 20260831114722 | 65 | 5 | 10.0 | 20.0 | 0.00 | 0.31 | 0.31 | 63 | 1020.7 |
| 20260831112717 | 65 | 304 | 7.0 | 19.0 | 0.00 | 0.31 | 0.31 | 63 | 1021.0 |
| 20260831111222 | 65 | 0 | 7.0 | 22.0 | 0.00 | 0.31 | 0.31 | 66 | 1020.8 |
| 20260831110230 | 65 | 346 | 10.0 | 19.0 | 0.00 | 0.31 | 0.31 | 67 | 1020.6 |
| 20260831105224 | 66 | 15 | 5.0 | 14.0 | 0.00 | 0.31 | 0.31 | 64 | 1020.6 |
| 20260831104720 | 66 | 355 | 2.0 | 14.0 | 0.00 | 0.31 | 0.31 | 65 | 1020.5 |
| 20260831104229 | 65 | 217 | 2.0 | 13.0 | 0.00 | 0.31 | 0.31 | 65 | 1020.6 |
| 20260831103220 | 65 | 52 | 3.0 | 19.0 | 0.00 | 0.31 | 0.31 | 63 | 1020.6 |
| 20260831102727 | 65 | 113 | 4.0 | 19.0 | 0.00 | 0.31 | 0.31 | 64 | 1020.6 |
| 20260831101711 | 66 | 75 | 6.0 | 22.0 | 0.00 | 0.31 | 0.31 | 62 | 1020.5 |
| 20260831100722 | 66 | 326 | 3.0 | 22.0 | 0.00 | 0.31 | 0.31 | 62 | 1020.7 |
| 20260831100211 | 65 | 119 | 5.0 | 16.0 | 0.00 | 0.31 | 0.31 | 64 | 1020.4 |
| 20260831095719 | 65 | 108 | 6.0 | 16.0 | 0.00 | 0.31 | 0.31 | 64 | 1020.5 |
| 20260831095232 | 65 | 165 | 5.0 | 11.0 | 0.00 | 0.31 | 0.31 | 67 | 1020.4 |
| 20260831094725 | 65 | 132 | 4.0 | 11.0 | 0.00 | 0.31 | 0.31 | 68 | 1020.5 |
| 20260831094228 | 64 | 171 | 4.0 | 11.0 | 0.00 | 0.31 | 0.31 | 70 | 1020.5 |
| 20260831093709 | 63 | 107 | 5.0 | 11.0 | 0.00 | 0.31 | 0.31 | 72 | 1020.6 |
| 20260831092213 | 62 | 163 | 3.0 | 12.0 | 0.00 | 0.31 | 0.31 | 72 | 1020.6 |
| 20260831091726 | 62 | 167 | 4.0 | 12.0 | 0.00 | 0.31 | 0.31 | 72 | 1020.6 |
| 20260831090717 | 61 | 142 | 4.0 | 12.0 | 0.00 | 0.31 | 0.31 | 73 | 1020.5 |
| 20260831090226 | 61 | 197 | 4.0 | 10.0 | 0.00 | 0.31 | 0.31 | 74 | 1020.5 |
| 20260831085726 | 61 | 182 | 5.0 | 10.0 | 0.00 | 0.31 | 0.31 | 73 | 1020.5 |
| 20260831084225 | 61 | 140 | 2.0 | 11.0 | 0.00 | 0.31 | 0.31 | 75 | 1020.3 |
| 20260831083725 | 61 | 100 | 2.0 | 11.0 | 0.00 | 0.31 | 0.31 | 74 | 1020.3 |
| 20260831083216 | 61 | 122 | 2.0 | 9.0 | 0.00 | 0.31 | 0.31 | 75 | 1020.1 |
| 20260831082729 | 60 | 152 | 2.0 | 9.0 | 0.00 | 0.31 | 0.31 | 76 | 1020.1 |
| 20260831082220 | 60 | 165 | 4.0 | 9.0 | 0.00 | 0.31 | 0.31 | 77 | 1020.1 |
| 20260831081231 | 60 | 171 | 4.0 | 10.0 | 0.00 | 0.31 | 0.31 | 77 | 1020.1 |
| 20260831080720 | 60 | 119 | 3.0 | 10.0 | 0.00 | 0.31 | 0.31 | 79 | 1020.1 |
| 20260831080217 | 59 | 65 | 2.0 | 8.0 | 0.00 | 0.31 | 0.31 | 78 | 1020.1 |
| 20260831075716 | 59 | 152 | 2.0 | 8.0 | 0.00 | 0.31 | 0.31 | 79 | 1020.0 |
| 20260831075210 | 59 | 157 | 3.0 | 10.0 | 0.00 | 0.31 | 0.31 | 79 | 1020.0 |
| 20260831074727 | 59 | 182 | 3.0 | 10.0 | 0.00 | 0.31 | 0.31 | 78 | 1020.0 |
| 20260831074208 | 59 | 190 | 3.0 | 12.0 | 0.00 | 0.31 | 0.31 | 78 | 1019.9 |
| 20260831073708 | 59 | 136 | 4.0 | 12.0 | 0.00 | 0.31 | 0.31 | 78 | 1019.9 |
| 20260831072729 | 58 | 174 | 4.0 | 12.0 | 0.00 | 0.31 | 0.31 | 79 | 1019.8 |
| 20260831071725 | 58 | 157 | 4.0 | 9.0 | 0.00 | 0.31 | 0.31 | 79 | 1019.8 |
| 20260831071218 | 58 | 171 | 4.0 | 11.0 | 0.00 | 0.31 | 0.31 | 80 | 1019.7 |
| 20260831070715 | 58 | 188 | 4.0 | 11.0 | 0.00 | 0.31 | 0.31 | 81 | 1019.7 |
| 20260831065721 | 58 | 139 | 4.0 | 11.0 | 0.00 | 0.31 | 0.31 | 81 | 1019.7 |
| 20260831065212 | 58 | 180 | 3.0 | 9.0 | 0.00 | 0.31 | 0.31 | 81 | 1019.7 |
| 20260831064224 | 58 | 169 | 2.0 | 8.0 | 0.00 | 0.31 | 0.31 | 80 | 1019.6 |
| 20260831063720 | 58 | 141 | 2.0 | 8.0 | 0.00 | 0.31 | 0.31 | 79 | 1019.6 |
| 20260831063226 | 58 | 124 | 2.0 | 7.0 | 0.00 | 0.31 | 0.31 | 79 | 1019.5 |
| 20260831062720 | 58 | 174 | 1.0 | 7.0 | 0.00 | 0.31 | 0.31 | 78 | 1019.5 |
| 20260831062235 | 58 | 156 | 1.0 | 8.0 | 0.00 | 0.31 | 0.31 | 79 | 1019.5 |
| 20260831061706 | 58 | 134 | 2.0 | 8.0 | 0.00 | 0.31 | 0.31 | 79 | 1019.5 |
| 20260831061220 | 58 | 186 | 2.0 | 7.0 | 0.00 | 0.31 | 0.31 | 77 | 1019.4 |
| 20260831060725 | 58 | 127 | 2.0 | 7.0 | 0.00 | 0.31 | 0.31 | 79 | 1019.3 |
| 20260831060226 | 58 | 117 | 1.0 | 13.0 | 0.00 | 0.31 | 0.31 | 78 | 1019.4 |
| 20260831055727 | 58 | 157 | 1.0 | 13.0 | 0.00 | 0.31 | 0.31 | 78 | 1019.5 |
| 20260831055215 | 58 | 152 | 2.0 | 13.0 | 0.00 | 0.31 | 0.31 | 79 | 1019.3 |
| 20260831054714 | 58 | 123 | 2.0 | 13.0 | 0.00 | 0.31 | 0.31 | 79 | 1019.5 |
| 20260831054223 | 59 | 52 | 1.0 | 11.0 | 0.00 | 0.31 | 0.31 | 80 | 1019.4 |
| 20260831053712 | 59 | 348 | 1.0 | 11.0 | 0.00 | 0.31 | 0.31 | 80 | 1019.3 |
| 20260831053214 | 59 | 122 | 2.0 | 7.0 | 0.00 | 0.31 | 0.31 | 81 | 1019.5 |
| 20260831052717 | 59 | 148 | 1.0 | 7.0 | 0.00 | 0.31 | 0.31 | 82 | 1019.3 |
| 20260831052229 | 58 | 71 | 2.0 | 16.0 | 0.00 | 0.31 | 0.31 | 84 | 1019.3 |
| 20260831051716 | 59 | 113 | 4.0 | 16.0 | 0.00 | 0.31 | 0.31 | 84 | 1019.2 |
| 20260831051218 | 59 | 107 | 4.0 | 13.0 | 0.00 | 0.31 | 0.31 | 85 | 1019.4 |
| 20260831050722 | 59 | 119 | 4.0 | 13.0 | 0.00 | 0.31 | 0.31 | 84 | 1019.3 |
| 20260831045724 | 59 | 150 | 4.0 | 10.0 | 0.00 | 0.31 | 0.31 | 84 | 1019.2 |
| 20260831045215 | 59 | 92 | 3.0 | 9.0 | 0.00 | 0.31 | 0.31 | 85 | 1019.1 |
| 20260831044727 | 59 | 167 | 3.0 | 9.0 | 0.00 | 0.31 | 0.31 | 85 | 1019.1 |
| 20260831044218 | 59 | 142 | 3.0 | 9.0 | 0.00 | 0.31 | 0.31 | 86 | 1019.0 |
| 20260831043719 | 59 | 136 | 2.0 | 9.0 | 0.00 | 0.31 | 0.31 | 86 | 1019.0 |
| 20260831043215 | 59 | 173 | 2.0 | 9.0 | 0.00 | 0.31 | 0.31 | 86 | 1019.0 |
| 20260831042733 | 60 | 119 | 2.0 | 9.0 | 0.00 | 0.31 | 0.31 | 86 | 1018.8 |
| 20260831042222 | 60 | 132 | 2.0 | 3.0 | 0.00 | 0.31 | 0.31 | 86 | 1018.8 |
| 20260831041706 | 60 | 124 | 1.0 | 3.0 | 0.00 | 0.31 | 0.31 | 85 | 1018.8 |
| 20260831041223 | 60 | 180 | 0.0 | 6.0 | 0.00 | 0.31 | 0.31 | 85 | 1018.7 |
| 20260831040220 | 60 | 142 | 0.0 | 10.0 | 0.00 | 0.31 | 0.31 | 85 | 1018.7 |
| 20260831035727 | 60 | 178 | 1.0 | 10.0 | 0.00 | 0.31 | 0.31 | 86 | 1018.6 |
| 20260831035226 | 59 | 69 | 2.0 | 11.0 | 0.00 | 0.31 | 0.31 | 86 | 1018.6 |
| 20260831034720 | 59 | 345 | 2.0 | 11.0 | 0.00 | 0.31 | 0.31 | 86 | 1018.7 |
| 20260831034230 | 59 | 75 | 2.0 | 12.0 | 0.00 | 0.31 | 0.31 | 86 | 1018.7 |
| 20260831033711 | 59 | 319 | 2.0 | 12.0 | 0.00 | 0.31 | 0.31 | 86 | 1018.7 |
| 20260831033230 | 59 | 96 | 2.0 | 16.0 | 0.00 | 0.31 | 0.31 | 86 | 1018.6 |
| 20260831032712 | 59 | 99 | 3.0 | 16.0 | 0.00 | 0.31 | 0.31 | 86 | 1018.7 |
| 20260831032214 | 59 | 73 | 3.0 | 16.0 | 0.00 | 0.31 | 0.31 | 87 | 1018.8 |
| 20260831031723 | 59 | 41 | 4.0 | 16.0 | 0.00 | 0.31 | 0.31 | 87 | 1018.7 |
| 20260831031216 | 59 | 173 | 4.0 | 12.0 | 0.00 | 0.31 | 0.31 | 87 | 1019.0 |
| 20260831030720 | 60 | 328 | 1.0 | 12.0 | 0.00 | 0.31 | 0.31 | 87 | 1018.8 |
| 20260831030227 | 60 | 140 | 2.0 | 13.0 | 0.00 | 0.31 | 0.31 | 88 | 1018.7 |
| 20260831025717 | 59 | 109 | 2.0 | 13.0 | 0.00 | 0.31 | 0.31 | 89 | 1018.6 |
| 20260831024722 | 59 | 76 | 2.0 | 10.0 | 0.00 | 0.31 | 0.31 | 90 | 1018.6 |
| 20260831024216 | 59 | 117 | 2.0 | 9.0 | 0.00 | 0.31 | 0.31 | 91 | 1018.6 |
| 20260831023714 | 59 | 78 | 3.0 | 9.0 | 0.00 | 0.31 | 0.31 | 92 | 1018.5 |
| 20260831023224 | 59 | 112 | 4.0 | 9.0 | 0.00 | 0.31 | 0.31 | 91 | 1018.3 |
| 20260831022729 | 59 | 136 | 3.0 | 9.0 | 0.00 | 0.31 | 0.31 | 92 | 1018.4 |
| 20260831022223 | 59 | 97 | 3.0 | 8.0 | 0.00 | 0.31 | 0.31 | 92 | 1018.3 |
| 20260831021726 | 59 | 157 | 3.0 | 8.0 | 0.00 | 0.31 | 0.31 | 92 | 1018.3 |
| 20260831021220 | 59 | 140 | 2.0 | 8.0 | 0.00 | 0.31 | 0.31 | 91 | 1018.2 |
| 20260831020719 | 59 | 145 | 1.0 | 8.0 | 0.00 | 0.31 | 0.31 | 91 | 1018.2 |
| 20260831020215 | 59 | 126 | 1.0 | 6.0 | 0.00 | 0.31 | 0.31 | 91 | 1018.2 |
| 20260831015724 | 59 | 159 | 1.0 | 6.0 | 0.00 | 0.31 | 0.31 | 91 | 1018.2 |
| 20260831015220 | 59 | 99 | 0.0 | 6.0 | 0.00 | 0.31 | 0.31 | 91 | 1018.2 |
| 20260831014710 | 59 | 148 | 1.0 | 6.0 | 0.00 | 0.31 | 0.31 | 91 | 1018.1 |
| 20260831014213 | 59 | 144 | 1.0 | 10.0 | 0.00 | 0.32 | 0.31 | 91 | 1018.2 |
| 20260831013718 | 59 | 87 | 3.0 | 10.0 | 0.00 | 0.32 | 0.31 | 91 | 1018.2 |
| 20260831013218 | 59 | 145 | 4.0 | 9.0 | 0.00 | 0.32 | 0.31 | 91 | 1018.2 |
| 20260831012729 | 59 | 106 | 4.0 | 9.0 | 0.00 | 0.32 | 0.31 | 91 | 1018.4 |
| 20260831012222 | 58 | 133 | 3.0 | 9.0 | 0.00 | 0.32 | 0.31 | 90 | 1018.3 |
| 20260831011719 | 58 | 153 | 3.0 | 9.0 | 0.00 | 0.32 | 0.31 | 90 | 1018.4 |
| 20260831011220 | 59 | 119 | 3.0 | 9.0 | 0.00 | 0.32 | 0.31 | 90 | 1018.3 |
| 20260831010729 | 58 | 117 | 2.0 | 9.0 | 0.00 | 0.32 | 0.31 | 89 | 1018.2 |
| 20260831010217 | 59 | 137 | 2.0 | 12.0 | 0.00 | 0.32 | 0.31 | 89 | 1018.2 |
| 20260831005217 | 59 | 162 | 4.0 | 11.0 | 0.00 | 0.32 | 0.31 | 89 | 1018.2 |
| 20260831004229 | 59 | 135 | 1.0 | 5.0 | 0.01 | 0.32 | 0.31 | 90 | 1018.2 |
| 20260831003716 | 59 | 84 | 0.0 | 5.0 | 0.01 | 0.32 | 0.31 | 90 | 1018.2 |
| 20260831003221 | 59 | 103 | 1.0 | 6.0 | 0.02 | 0.32 | 0.31 | 90 | 1018.3 |
| 20260831002713 | 59 | 93 | 1.0 | 6.0 | 0.05 | 0.32 | 0.31 | 90 | 1018.3 |
| 20260831001748 | 60 | 105 | 0.0 | 0.0 | 0.06 | 0.32 | 0.31 | 90 | 1018.5 |
| 20260831001221 | 60 | 110 | 0.0 | 5.0 | 0.06 | 0.32 | 0.31 | 90 | 1018.3 |
| 20260831000708 | 60 | 109 | 0.0 | 10.0 | 0.06 | 0.32 | 0.31 | 90 | 1018.4 |
| 20260831000211 | 60 | 165 | 1.0 | 10.0 | 0.07 | 0.32 | 0.31 | 90 | 1018.6 |
| 20260830235730 | 60 | 114 | 2.0 | 10.0 | 0.07 | 0.32 | 0.31 | 89 | 1018.7 |
| 20260830235230 | 60 | 188 | 2.0 | 18.0 | 0.06 | 0.31 | 0.31 | 89 | 1018.6 |
| 20260830234722 | 60 | 150 | 1.0 | 18.0 | 0.06 | 0.32 | 0.31 | 88 | 1018.7 |
| 20260830234221 | 60 | 10 | 3.0 | 18.0 | 0.06 | 0.32 | 0.31 | 87 | 1018.6 |
| 20260830233731 | 61 | 250 | 5.0 | 18.0 | 0.06 | 0.31 | 0.30 | 88 | 1018.6 |
| 20260830233226 | 61 | 18 | 4.0 | 19.0 | 0.09 | 0.31 | 0.28 | 89 | 1018.7 |
| 20260830232716 | 60 | 65 | 5.0 | 19.0 | 0.16 | 0.27 | 0.25 | 90 | 1018.6 |
| 20260830232216 | 61 | 338 | 5.0 | 8.0 | 0.25 | 0.27 | 0.25 | 90 | 1018.1 |
| 20260830231726 | 60 | 17 | 1.0 | 8.0 | 0.25 | 0.27 | 0.25 | 91 | 1018.3 |
| 20260830231219 | 61 | 338 | 0.0 | 0.0 | 0.25 | 0.27 | 0.25 | 90 | 1017.9 |